Location: Cudham
(51.3000°N, 0.0667°E)
Time: 03:36:53
(UTC+00:00)

Meteor 1-5 Rocket - Pass Details

Date: 15 May 2026
Orbit: 788 x 913 km, 81.2° (Epoch: 8 June)

Event Time Altitude Azimuth Distance (km) Brightness Sun altitude
Rises 21:04:32 0° 348° (NNW) 3,444 8.5 -10.3°
Reaches altitude 10° 21:06:59 10° 352° (N) 2,522 7.6 -10.5°
Maximum altitude 21:12:42 64° 74° (ENE) 981 4.4 -11.1°
Enters shadow 21:17:40 15° 154° (SSE) 2,255 5.8 -11.6°
